GW4852 Weather Reports


time (UTC)temp
C
wind
direction
speed
KPH
gust
KPH
rain 1hr
cm
rain 24hr
cm
rain mn
cm
humidity
%
barometer
mb
20260509201322 19 73 3.2 4.8 0.00 0.00 0.00 55 1009.8
20260509200818 19 82 0.0 3.2 0.00 0.00 0.00 53 1009.5
20260509200314 19 5 1.6 4.8 0.00 0.00 0.00 55 1009.5
20260509195810 18 51 1.6 4.8 0.00 0.00 0.00 58 1009.7
20260509195306 19 62 1.6 3.2 0.00 0.00 0.00 56 1009.7
20260509194805 18 45 3.2 4.8 0.00 0.00 0.00 58 1009.6
20260509194301 18 88 0.0 1.6 0.00 0.00 0.00 54 1009.9
20260509193758 19 122 0.0 3.2 0.00 0.00 0.00 54 1010.1
20260509193258 19 122 0.0 3.2 0.00 0.00 0.00 54 1010.1
20260509192754 20 103 4.8 4.8 0.00 0.00 0.00 53 1010.1
20260509192250 20 127 4.8 4.8 0.00 0.00 0.00 53 1009.9
20260509191745 20 268 3.2 4.8 0.00 0.00 0.00 55 1009.9
20260509191242 20 243 0.0 1.6 0.00 0.00 0.00 55 1010.0
20260509190738 20 71 4.8 9.7 0.00 0.00 0.00 50 1009.9
20260509190235 21 249 0.0 3.2 0.00 0.00 0.00 50 1010.0
20260509185732 21 311 0.0 4.8 0.00 0.00 0.00 53 1010.1
20260509185228 20 222 3.2 6.4 0.00 0.00 0.00 51 1010.3
20260509184726 20 245 4.8 6.4 0.00 0.00 0.00 55 1010.2
20260509184223 18 160 1.6 9.7 0.00 0.00 0.00 57 1010.3
20260509183720 18 104 3.2 4.8 0.00 0.00 0.00 60 1010.2
20260509183215 18 98 3.2 6.4 0.00 0.00 0.00 60 1010.4
20260509182711 18 174 3.2 4.8 0.00 0.00 0.00 58 1010.4
20260509182209 17 89 1.6 4.8 0.00 0.00 0.00 61 1010.5
20260509181706 18 101 4.8 9.7 0.00 0.00 0.00 59 1010.5
20260509181203 17 84 4.8 6.4 0.00 0.00 0.00 60 1010.7
20260509180700 17 107 3.2 6.4 0.00 0.00 0.00 59 1010.5
20260509180156 17 144 3.2 4.8 0.00 0.00 0.00 60 1010.7
20260509175652 18 103 4.8 6.4 0.00 0.00 0.00 59 1010.7
20260509175149 17 209 6.4 9.7 0.00 0.00 0.00 59 1010.4
20260509174645 17 101 4.8 11.3 0.00 0.00 0.00 61 1010.8
20260509174145 17 36 0.0 4.8 0.00 0.00 0.00 64 1010.8
20260509173642 16 92 3.2 3.2 0.00 0.00 0.00 66 1010.8
20260509173137 16 106 1.6 4.8 0.00 0.00 0.00 66 1010.8
20260509172634 16 123 3.2 6.4 0.00 0.00 0.00 66 1011.2
20260509172130 16 96 1.6 4.8 0.00 0.00 0.00 65 1011.2
20260509171626 16 99 3.2 4.8 0.00 0.00 0.00 65 1011.5
20260509171123 16 79 4.8 6.4 0.00 0.00 0.00 65 1011.3
20260509170619 16 110 0.0 3.2 0.00 0.00 0.00 63 1011.3
20260509170115 16 329 3.2 3.2 0.00 0.00 0.00 63 1011.3
20260509165614 17 60 1.6 3.2 0.00 0.00 0.00 61 1011.6
20260509165110 17 147 1.6 1.6 0.00 0.00 0.00 61 1011.7
20260509164606 16 56 1.6 1.6 0.00 0.00 0.00 65 1011.7
20260509164101 15 330 0.0 1.6 0.00 0.00 0.00 67 1011.8
20260509163600 15 324 1.6 3.2 0.00 0.00 0.00 68 1011.9
20260509163054 15 6 1.6 3.2 0.00 0.00 0.00 70 1011.9
20260509162551 15 300 1.6 4.8 0.00 0.00 0.00 71 1011.9
20260509162047 15 313 1.6 3.2 0.00 0.00 0.00 72 1011.8
20260509161545 16 271 0.0 1.6 0.00 0.00 0.00 69 1012.1
20260509161044 16 14 0.0 0.0 0.00 0.00 0.00 70 1011.9
20260509160541 15 14 0.0 0.0 0.00 0.00 0.00 71 1011.9
20260509160036 15 14 1.6 3.2 0.00 0.00 0.00 73 1011.9
20260509155532 15 34 0.0 0.0 0.00 0.00 0.00 71 1012.0
20260509155029 15 269 0.0 0.0 0.00 0.00 0.00 71 1011.9
20260509154525 15 269 0.0 1.6 0.00 0.00 0.00 70 1011.7
20260509154023 15 269 0.0 1.6 0.00 0.00 0.00 71 1011.8
20260509153520 15 269 1.6 3.2 0.00 0.00 0.00 75 1011.9
20260509153016 15 358 0.0 3.2 0.00 0.00 0.00 75 1011.9
20260509152512 14 12 0.0 1.6 0.00 0.00 0.00 76 1011.8
20260509152009 14 275 0.0 3.2 0.00 0.00 0.00 75 1011.8
20260509151505 14 326 1.6 4.8 0.00 0.00 0.00 77 1012.1
20260509151004 14 6 1.6 3.2 0.00 0.00 0.00 77 1011.9
20260509150500 14 307 3.2 3.2 0.00 0.00 0.00 76 1012.0
20260509145959 14 335 0.0 4.8 0.00 0.00 0.00 78 1011.9
20260509145454 15 22 3.2 6.4 0.00 0.00 0.00 78 1011.6
20260509144949 14 326 0.0 1.6 0.00 0.00 0.00 77 1011.9
20260509144447 13 298 3.2 4.8 0.00 0.00 0.00 77 1011.8
20260509143944 13 275 1.6 4.8 0.00 0.00 0.00 79 1011.9
20260509143441 14 327 4.8 6.4 0.00 0.00 0.00 78 1012.1
20260509142937 13 34 0.0 0.0 0.00 0.00 0.00 77 1012.2
20260509142434 13 72 0.0 0.0 0.00 0.00 0.00 79 1012.1
20260509141929 13 70 0.0 0.0 0.00 0.00 0.00 79 1012.2
20260509141426 13 70 0.0 1.6 0.00 0.00 0.00 80 1012.4
20260509140923 13 47 0.0 3.2 0.00 0.00 0.00 79 1012.3
20260509140419 12 26 0.0 1.6 0.00 0.00 0.00 83 1012.1
20260509135918 12 26 1.6 3.2 0.00 0.00 0.00 82 1012.1
20260509135415 12 46 0.0 0.0 0.00 0.00 0.00 84 1012.0
20260509134912 12 46 0.0 0.0 0.00 0.00 0.00 87 1012.2
20260509134410 11 46 0.0 0.0 0.00 0.00 0.00 88 1012.1
20260509133907 11 14 0.0 0.0 0.00 0.00 0.00 88 1011.9
20260509133403 11 357 1.6 1.6 0.00 0.00 0.00 89 1011.9
20260509132902 11 7 0.0 4.8 0.00 0.00 0.00 90 1011.8
20260509132359 11 336 3.2 4.8 0.00 0.00 0.00 91 1011.7
20260509131857 11 337 3.2 3.2 0.00 0.00 0.00 88 1011.8
20260509131353 11 279 0.0 0.0 0.00 0.00 0.00 88 1011.8
20260509130850 11 279 0.0 0.0 0.00 0.00 0.00 88 1012.2
20260509130345 11 279 0.0 0.0 0.00 0.00 0.00 89 1012.1
20260509125842 11 279 0.0 0.0 0.00 0.00 0.00 89 1012.2
20260509125339 11 279 0.0 0.0 0.00 0.00 0.00 88 1012.2
20260509124835 11 279 0.0 0.0 0.00 0.00 0.00 88 1012.3
20260509124332 11 279 0.0 0.0 0.00 0.00 0.00 87 1012.3
20260509123830 11 279 0.0 0.0 0.00 0.00 0.00 89 1012.1
20260509123327 11 279 0.0 0.0 0.00 0.00 0.00 88 1012.2
20260509122822 11 80 0.0 0.0 0.00 0.00 0.00 88 1012.1
20260509122320 10 62 0.0 0.0 0.00 0.00 0.00 88 1012.2
20260509121817 10 62 0.0 1.6 0.00 0.00 0.00 88 1012.2
20260509121314 10 65 1.6 3.2 0.00 0.00 0.00 89 1012.1
20260509120812 10 93 3.2 3.2 0.00 0.00 0.00 89 1012.2
20260509120309 10 311 3.2 6.4 0.00 0.00 0.00 86 1012.2
20260509115808 10 305 3.2 4.8 0.00 0.00 0.00 87 1012.1
20260509115306 10 121 0.0 1.6 0.00 0.00 0.00 85 1012.4
20260509114802 10 57 1.6 4.8 0.00 0.00 0.00 84 1012.0
20260509114301 10 355 4.8 6.4 0.00 0.00 0.00 86 1012.0
20260509113759 10 346 3.2 3.2 0.00 0.00 0.00 86 1011.9
20260509113256 10 343 1.6 3.2 0.00 0.00 0.00 87 1012.0
20260509112753 10 342 1.6 3.2 0.00 0.00 0.00 84 1012.1
20260509112250 10 343 0.0 0.0 0.00 0.00 0.00 84 1012.1
20260509111747 10 342 0.0 0.0 0.00 0.00 0.00 84 1012.0
20260509111244 10 344 1.6 1.6 0.00 0.00 0.00 86 1012.0
20260509110741 10 344 1.6 3.2 0.00 0.00 0.00 85 1012.0
20260509110238 10 344 1.6 3.2 0.00 0.00 0.00 85 1012.0
20260509105736 10 344 3.2 3.2 0.00 0.00 0.00 82 1011.9
20260509105233 10 344 0.0 0.0 0.00 0.00 0.00 83 1011.8
20260509104730 10 344 1.6 1.6 0.00 0.00 0.00 83 1011.8
20260509104227 10 345 0.0 0.0 0.00 0.00 0.00 81 1011.7
20260509103725 10 345 0.0 1.6 0.00 0.00 0.00 83 1011.5
20260509103222 10 344 0.0 3.2 0.00 0.00 0.00 83 1011.6
20260509102720 9 322 3.2 3.2 0.00 0.00 0.00 84 1011.5
20260509102217 10 338 3.2 3.2 0.00 0.00 0.00 82 1011.5
20260509101713 9 351 0.0 0.0 0.00 0.00 0.00 85 1011.5
20260509101209 9 351 0.0 0.0 0.00 0.00 0.00 84 1011.6
20260509100707 9 351 0.0 0.0 0.00 0.00 0.00 84 1011.4
20260509100204 9 351 0.0 0.0 0.00 0.00 0.00 85 1011.3
20260509095701 9 351 1.6 3.2 0.00 0.00 0.00 84 1011.3
20260509095158 9 336 1.6 3.2 0.00 0.00 0.00 85 1011.2
20260509094654 9 342 3.2 3.2 0.00 0.00 0.00 85 1011.4
20260509094151 9 334 1.6 3.2 0.00 0.00 0.00 85 1011.2
20260509093650 9 353 1.6 1.6 0.00 0.00 0.00 85 1011.2
20260509093147 9 356 1.6 3.2 0.00 0.00 0.00 85 1011.3
20260509092644 9 344 1.6 3.2 0.00 0.00 0.00 84 1011.3
20260509092143 10 349 0.0 1.6 0.00 0.00 0.00 83 1011.3
20260509091641 9 355 1.6 1.6 0.00 0.00 0.00 83 1011.3
20260509091136 9 332 3.2 3.2 0.00 0.00 0.00 83 1011.4
20260509090635 9 15 3.2 3.2 0.00 0.00 0.00 83 1011.4
20260509090131 9 336 1.6 3.2 0.00 0.00 0.00 84 1011.3
20260509085629 9 332 1.6 3.2 0.00 0.00 0.00 84 1011.2
20260509085124 9 333 3.2 3.2 0.00 0.00 0.00 85 1011.2
20260509084622 9 325 1.6 3.2 0.00 0.00 0.00 85 1011.0
20260509084119 10 335 3.2 4.8 0.00 0.00 0.00 83 1011.0
20260509083616 10 349 1.6 3.2 0.00 0.00 0.00 84 1011.0
20260509083112 10 25 0.0 0.0 0.00 0.00 0.00 83 1011.2
20260509082610 10 25 0.0 0.0 0.00 0.00 0.00 85 1011.3
20260509082107 10 25 0.0 0.0 0.00 0.00 0.00 84 1011.3
20260509081604 9 25 0.0 0.0 0.00 0.00 0.00 84 1011.3
20260509081101 9 25 0.0 0.0 0.00 0.00 0.00 88 1011.2
20260509080559 9 25 0.0 0.0 0.00 0.00 0.00 86 1011.3
20260509080057 9 25 0.0 0.0 0.00 0.00 0.00 86 1011.5
20260509075554 9 25 0.0 0.0 0.00 0.00 0.00 88 1011.5
20260509075052 9 25 0.0 0.0 0.00 0.00 0.00 84 1011.4
20260509074549 9 25 0.0 0.0 0.00 0.00 0.00 83 1011.4
20260509074045 9 25 0.0 0.0 0.00 0.00 0.00 84 1011.4
20260509073542 9 25 0.0 0.0 0.00 0.00 0.00 84 1011.4
20260509073038 8 25 0.0 0.0 0.00 0.00 0.00 84 1011.5
20260509072535 8 25 0.0 0.0 0.00 0.00 0.00 86 1011.5
20260509072032 8 25 0.0 0.0 0.00 0.00 0.00 87 1011.4
20260509071528 8 25 0.0 0.0 0.00 0.00 0.00 86 1011.6
20260509071026 8 25 0.0 0.0 0.00 0.00 0.00 85 1011.7
20260509070523 8 25 0.0 0.0 0.00 0.00 0.00 86 1011.6
20260509070019 8 25 0.0 0.0 0.00 0.00 0.00 85 1011.4
20260509065514 8 25 0.0 0.0 0.00 0.00 0.00 86 1011.8
20260509065011 8 25 0.0 0.0 0.00 0.00 0.00 86 1011.8
20260509064509 8 25 0.0 0.0 0.00 0.00 0.00 85 1011.7
20260509064007 8 25 0.0 0.0 0.00 0.00 0.00 84 1011.7
20260509063502 8 25 0.0 0.0 0.00 0.00 0.00 87 1011.6
20260509062959 8 25 0.0 0.0 0.00 0.00 0.00 85 1011.8
20260509062456 8 25 0.0 0.0 0.00 0.00 0.00 87 1011.9
20260509061954 8 25 0.0 0.0 0.00 0.00 0.00 88 1011.9
20260509061451 8 25 0.0 0.0 0.00 0.00 0.00 84 1012.1
20260509060948 8 25 0.0 0.0 0.00 0.00 0.00 85 1011.9
20260509060446 8 25 0.0 0.0 0.00 0.00 0.00 86 1012.1
20260509055941 8 25 0.0 0.0 0.00 0.00 0.00 85 1012.1
20260509055436 8 25 0.0 0.0 0.00 0.00 0.00 85 1012.1
20260509054933 8 25 0.0 0.0 0.00 0.00 0.00 84 1012.1
20260509054430 9 25 0.0 0.0 0.00 0.00 0.00 82 1012.1
20260509053928 8 25 0.0 1.6 0.00 0.00 0.00 84 1012.0
20260509053426 9 25 0.0 0.0 0.00 0.00 0.00 83 1012.1
20260509052923 9 25 0.0 0.0 0.00 0.00 0.00 83 1012.2
20260509052420 9 25 0.0 0.0 0.00 0.00 0.00 84 1012.1
20260509051918 9 25 0.0 0.0 0.00 0.00 0.00 86 1012.3
20260509051416 9 25 0.0 0.0 0.00 0.00 0.00 82 1012.3
20260509050912 9 25 0.0 1.6 0.00 0.00 0.00 83 1012.2
20260509050409 9 5 0.0 0.0 0.00 0.00 0.00 81 1012.0
20260509045906 9 5 0.0 0.0 0.00 0.00 0.00 82 1012.1
20260509045403 9 5 0.0 0.0 0.00 0.00 0.00 81 1012.2
20260509044900 9 5 0.0 0.0 0.00 0.00 0.00 83 1012.1
20260509044358 9 5 0.0 0.0 0.00 0.00 0.00 80 1012.1
20260509043855 8 5 0.0 0.0 0.00 0.00 0.00 82 1012.1
20260509043350 8 5 0.0 0.0 0.00 0.00 0.00 82 1012.1
20260509042846 8 5 0.0 0.0 0.00 0.00 0.00 82 1012.1
20260509042343 8 5 0.0 0.0 0.00 0.00 0.00 83 1012.2
20260509041840 8 5 0.0 0.0 0.00 0.00 0.00 84 1012.2
20260509041336 8 5 0.0 0.0 0.00 0.00 0.00 85 1012.3
20260509040835 8 5 0.0 1.6 0.00 0.00 0.00 83 1012.4
20260509040332 8 340 0.0 0.0 0.00 0.00 0.00 82 1012.2
20260509035829 8 340 0.0 0.0 0.00 0.00 0.00 82 1012.2
20260509035326 9 348 3.2 3.2 0.00 0.00 0.00 81 1012.3
20260509034822 9 351 0.0 0.0 0.00 0.00 0.00 80 1012.0
20260509034320 10 351 0.0 0.0 0.00 0.00 0.00 80 1012.2
20260509033817 9 352 0.0 0.0 0.00 0.00 0.00 81 1012.2
20260509033314 10 333 3.2 3.2 0.00 0.00 0.00 79 1012.1
20260509032811 10 340 0.0 1.6 0.00 0.00 0.00 78 1012.3
20260509032308 10 14 0.0 0.0 0.00 0.00 0.00 75 1012.4
20260509031806 10 22 1.6 3.2 0.00 0.00 0.00 76 1012.3
20260509031303 12 328 4.8 4.8 0.00 0.00 0.00 73 1012.6
20260509030800 12 343 3.2 3.2 0.00 0.00 0.00 70 1012.7
20260509030258 12 323 3.2 3.2 0.00 0.00 0.00 70 1012.6
20260509025755 12 63 1.6 3.2 0.00 0.00 0.00 72 1012.7
20260509025250 11 303 0.0 4.8 0.00 0.00 0.00 74 1012.8
20260509024746 11 331 3.2 4.8 0.00 0.00 0.00 74 1012.8
20260509024242 12 347 1.6 1.6 0.00 0.00 0.00 75 1012.7
20260509023739 12 328 1.6 1.6 0.00 0.00 0.00 70 1012.7
20260509023236 11 312 3.2 3.2 0.00 0.00 0.00 76 1012.9
20260509022732 11 355 1.6 1.6 0.00 0.00 0.00 75 1012.8
20260509022230 12 347 1.6 1.6 0.00 0.00 0.00 72 1012.9
20260509021727 11 334 1.6 1.6 0.00 0.00 0.00 75 1012.9
20260509021224 11 334 0.0 1.6 0.00 0.00 0.00 77 1012.8
20260509020722 12 334 1.6 3.2 0.00 0.00 0.00 74 1012.8
20260509020219 12 334 0.0 0.0 0.00 0.00 0.00 68 1012.8
20260509015717 11 335 0.0 0.0 0.00 0.00 0.00 76 1012.4
20260509015215 12 333 1.6 1.6 0.00 0.00 0.00 72 1012.6
20260509014711 11 333 0.0 1.6 0.00 0.00 0.00 73 1012.7
20260509014209 11 329 3.2 3.2 0.00 0.00 0.00 73 1012.6
20260509013705 12 347 3.2 3.2 0.00 0.00 0.00 72 1012.7
20260509013201 11 348 0.0 0.0 0.00 0.00 0.00 74 1012.7
20260509012657 11 348 0.0 0.0 0.00 0.00 0.00 73 1012.7
20260509012154 11 348 0.0 1.6 0.00 0.00 0.00 76 1012.5
20260509011652 11 323 1.6 1.6 0.00 0.00 0.00 72 1012.6
20260509011149 11 312 0.0 0.0 0.00 0.00 0.00 71 1012.3
20260509010647 12 312 0.0 1.6 0.00 0.00 0.00 70 1012.3
20260509010143 11 309 0.0 1.6 0.00 0.00 0.00 71 1012.2
20260509005641 11 316 0.0 0.0 0.00 0.00 0.00 73 1012.3
20260509005137 11 351 0.0 0.0 0.00 0.00 0.00 74 1012.4
20260509004632 11 351 0.0 0.0 0.00 0.00 0.00 73 1012.3
20260509004130 11 351 0.0 0.0 0.00 0.00 0.00 73 1012.2
20260509003628 11 351 0.0 0.0 0.00 0.00 0.00 71 1012.3
20260509003125 11 351 0.0 0.0 0.00 0.00 0.00 72 1012.2
20260509002623 12 351 0.0 0.0 0.00 0.00 0.00 67 1012.3
20260509002120 12 347 0.0 0.0 0.00 0.00 0.00 64 1012.3
20260509001617 12 347 0.0 0.0 0.00 0.00 0.00 63 1012.3
20260509001113 13 347 0.0 0.0 0.00 0.00 0.00 64 1012.1
20260509000612 14 337 3.2 4.8 0.00 0.00 0.00 62 1012.1
20260509000108 13 332 3.2 4.8 0.00 0.00 0.00 59 1012.1
20260508235605 13 342 1.6 3.2 0.00 0.00 0.00 60 1012.1
20260508235101 14 341 3.2 4.8 0.00 0.00 0.00 55 1012.1
20260508234559 15 342 1.6 3.2 0.00 0.00 0.00 57 1012.0
20260508234055 17 342 1.6 1.6 0.00 0.00 0.00 44 1011.8
20260508233555 17 342 1.6 1.6 0.00 0.00 0.00 46 1011.9
20260508233052 17 342 0.0 0.0 0.00 0.00 0.00 48 1011.9
20260508232549 17 342 0.0 0.0 0.00 0.00 0.00 46 1011.8
20260508232046 17 342 0.0 1.6 0.00 0.00 0.00 44 1011.9
20260508231543 17 342 1.6 3.2 0.00 0.00 0.00 41 1012.0
20260508231040 18 332 3.2 3.2 0.00 0.00 0.00 41 1011.8
20260508230537 18 315 0.0 3.2 0.00 0.00 0.00 43 1011.9
20260508230033 18 308 1.6 1.6 0.00 0.00 0.00 45 1011.8
20260508225531 18 286 0.0 1.6 0.00 0.00 0.00 39 1011.9
20260508225027 18 281 0.0 0.0 0.00 0.00 0.00 39 1012.0
20260508224525 18 230 1.6 3.2 0.00 0.00 0.00 39 1011.9
20260508224022 18 287 0.0 0.0 0.00 0.00 0.00 41 1011.9
20260508223520 18 291 3.2 4.8 0.00 0.00 0.00 39 1011.9
20260508223017 19 267 0.0 3.2 0.00 0.00 0.00 40 1011.9
20260508222515 19 240 0.0 6.4 0.00 0.00 0.00 38 1012.1
20260508222011 19 270 0.0 9.7 0.00 0.00 0.00 37 1012.1
20260508221508 19 242 3.2 3.2 0.00 0.00 0.00 37 1012.1
20260508221004 19 244 1.6 4.8 0.00 0.00 0.00 37 1012.1
20260508220500 19 241 1.6 3.2 0.00 0.00 0.00 37 1012.0
20260508215956 19 220 0.0 3.2 0.00 0.00 0.00 39 1012.0
20260508215453 19 230 1.6 4.8 0.00 0.00 0.00 37 1012.1
20260508214950 19 282 1.6 6.4 0.00 0.00 0.00 38 1011.9
20260508214448 20 313 3.2 9.7 0.00 0.00 0.00 37 1012.1
20260508213943 20 188 3.2 4.8 0.00 0.00 0.00 37 1012.2
20260508213441 19 256 3.2 6.4 0.00 0.00 0.00 38 1012.1
20260508212936 19 319 3.2 4.8 0.00 0.00 0.00 37 1012.2
20260508212434 19 320 6.4 11.3 0.00 0.00 0.00 37 1012.2
20260508211929 20 254 3.2 4.8 0.00 0.00 0.00 37 1012.3
20260508211425 20 242 1.6 3.2 0.00 0.00 0.00 35 1012.1
20260508210923 19 257 1.6 4.8 0.00 0.00 0.00 37 1012.4
20260508210419 18 247 1.6 3.2 0.00 0.00 0.00 36 1012.1
20260508205915 18 250 1.6 6.4 0.00 0.00 0.00 37 1012.5
20260508205413 18 211 4.8 6.4 0.00 0.00 0.00 36 1012.5
20260508204909 18 258 1.6 3.2 0.00 0.00 0.00 39 1012.5
20260508204406 18 259 4.8 6.4 0.00 0.00 0.00 36 1012.5
20260508203901 18 278 4.8 6.4 0.00 0.00 0.00 37 1012.5
20260508203358 18 243 4.8 6.4 0.00 0.00 0.00 37 1012.6
20260508202853 18 267 1.6 6.4 0.00 0.00 0.00 37 1012.6
20260508202351 18 233 3.2 6.4 0.00 0.00 0.00 36 1012.6
20260508201848 18 286 3.2 4.8 0.00 0.00 0.00 36 1012.7